Time,TemperatureF,DewpointF,PressureIn,WindDirection,WindDirectionDegrees,WindSpeedMPH,WindSpeedGustMPH,Humidity,HourlyPrecipIn,Conditions,Clouds,dailyrainin,SoftwareType,DateUTC
2013-02-10 00:00:00,22.3,-13.8,30.19,West,270,4.6,4.6,19,0.00,CLR,,0.09,WeatherDisplay:10.37,2013-02-10 05:00:00,
2013-02-10 00:05:00,22.5,-13.7,30.20,North,0,6.9,6.9,19,0.00,RA,,0.00,WeatherDisplay:10.37,2013-02-10 05:05:00,
2013-02-10 00:10:00,22.3,-13.8,30.20,North,0,5.8,5.8,19,0.00,CLR,,0.00,WeatherDisplay:10.37,2013-02-10 05:10:00,
2013-02-10 00:15:00,22.3,-13.8,30.20,NW,315,5.8,5.8,19,0.00,CLR,,0.00,WeatherDisplay:10.37,2013-02-10 05:15:00,
2013-02-10 00:20:00,22.1,-15.1,30.20,North,0,5.8,5.8,18,0.00,CLR,,0.00,WeatherDisplay:10.37,2013-02-10 05:20:00,
2013-02-10 00:25:00,21.9,-13.1,30.20,NW,315,8.1,8.1,20,0.00,CLR,,0.00,WeatherDisplay:10.37,2013-02-10 05:25:00,
2013-02-10 00:30:00,21.9,-13.1,30.20,NE,45,3.5,3.5,20,0.00,CLR,,0.00,WeatherDisplay:10.37,2013-02-10 05:30:00,
2013-02-10 00:35:00,21.7,-13.3,30.20,NE,45,5.8,5.8,20,0.00,CLR,,0.00,WeatherDisplay:10.37,2013-02-10 05:35:00,
2013-02-10 00:40:00,21.7,-13.3,30.21,NW,315,5.8,5.8,20,0.00,CLR,,0.00,WeatherDisplay:10.37,2013-02-10 05:40:00,
2013-02-10 00:45:00,21.6,-12.4,30.21,North,0,3.5,3.5,21,0.00,CLR,,0.00,WeatherDisplay:10.37,2013-02-10 05:45:00,
2013-02-10 00:50:00,21.6,-12.4,30.21,WNW,292,6.9,6.9,21,0.00,CLR,,0.00,WeatherDisplay:10.37,2013-02-10 05:50:00,
2013-02-10 00:55:00,21.6,-13.4,30.21,West,270,5.8,5.8,20,0.00,CLR,,0.00,WeatherDisplay:10.37,2013-02-10 05:55:00,
2013-02-10 01:00:00,21.4,-12.6,30.21,SW,225,8.1,8.1,21,0.00,CLR,,0.00,WeatherDisplay:10.37,2013-02-10 06:00:00,
2013-02-10 01:05:00,21.4,-13.6,30.22,North,0,5.8,5.8,20,0.00,CLR,,0.00,WeatherDisplay:10.37,2013-02-10 06:05:00,
2013-02-10 01:10:00,21.4,-12.6,30.22,North,0,5.8,5.8,21,0.00,CLR,,0.00,WeatherDisplay:10.37,2013-02-10 06:10:00,
2013-02-10 01:15:00,21.0,-12.9,30.22,NW,315,3.5,3.5,21,0.00,CLR,,0.00,WeatherDisplay:10.37,2013-02-10 06:15:00,
2013-02-10 01:20:00,20.8,-13.0,30.22,West,270,5.8,5.8,21,0.00,CLR,,0.00,WeatherDisplay:10.37,2013-02-10 06:20:00,
2013-02-10 01:25:00,20.7,-12.3,30.22,NW,315,3.5,3.5,22,0.00,CLR,,0.00,WeatherDisplay:10.37,2013-02-10 06:25:00,
2013-02-10 01:30:00,20.7,-12.3,30.22,NW,315,3.5,3.5,22,0.00,CLR,,0.00,WeatherDisplay:10.37,2013-02-10 06:30:00,
2013-02-10 01:35:00,20.5,-12.4,30.22,WNW,292,8.1,8.1,22,0.00,CLR,,0.00,WeatherDisplay:10.37,2013-02-10 06:35:00,
2013-02-10 01:40:00,20.5,-11.5,30.22,North,0,5.8,5.8,23,0.00,CLR,,0.00,WeatherDisplay:10.37,2013-02-10 06:40:00,
2013-02-10 01:45:00,20.5,-11.5,30.22,NE,45,4.6,4.6,23,0.00,CLR,,0.00,WeatherDisplay:10.37,2013-02-10 06:45:00,
2013-02-10 01:50:00,20.3,-11.7,30.23,South,180,5.8,5.8,23,0.00,CLR,,0.00,WeatherDisplay:10.37,2013-02-10 06:50:00,
2013-02-10 01:55:00,20.3,-11.7,30.22,North,0,5.8,5.8,23,0.00,CLR,,0.00,WeatherDisplay:10.37,2013-02-10 06:55:00,
2013-02-10 02:00:00,20.3,-11.7,30.23,NW,315,4.6,4.6,23,0.00,CLR,,0.00,WeatherDisplay:10.37,2013-02-10 07:00:00,
2013-02-10 02:05:00,20.1,-11.8,30.23,North,0,3.5,0.0,23,0.00,CLR,,0.00,WeatherDisplay:10.37,2013-02-10 07:05:00,
2013-02-10 02:10:00,19.9,-12.0,30.23,North,0,3.5,3.5,23,0.00,CLR,,0.00,WeatherDisplay:10.37,2013-02-10 07:10:00,
2013-02-10 02:15:00,19.8,-11.3,30.24,NW,315,3.5,3.5,24,0.00,CLR,,0.00,WeatherDisplay:10.37,2013-02-10 07:15:00,
2013-02-10 02:20:00,19.8,-11.3,30.24,NW,315,4.6,4.6,24,0.00,CLR,,0.00,WeatherDisplay:10.37,2013-02-10 07:20:00,
2013-02-10 02:25:00,19.8,-11.3,30.23,NW,315,6.9,6.9,24,0.00,CLR,,0.00,WeatherDisplay:10.37,2013-02-10 07:25:00,
2013-02-10 02:30:00,19.8,-11.3,30.24,North,0,5.8,5.8,24,0.00,CLR,,0.00,WeatherDisplay:10.37,2013-02-10 07:30:00,
2013-02-10 02:35:00,19.6,-11.4,30.24,NW,315,4.6,4.6,24,0.00,CLR,,0.00,WeatherDisplay:10.37,2013-02-10 07:35:00,
2013-02-10 02:40:00,19.4,-11.6,30.24,NW,315,5.8,5.8,24,0.00,CLR,,0.00,WeatherDisplay:10.37,2013-02-10 07:40:00,
2013-02-10 02:45:00,19.4,-11.6,30.24,NW,315,3.5,3.5,24,0.00,CLR,,0.00,WeatherDisplay:10.37,2013-02-10 07:45:00,
2013-02-10 02:50:00,19.4,-10.8,30.24,NW,315,5.8,5.8,25,0.00,CLR,,0.00,WeatherDisplay:10.37,2013-02-10 07:50:00,
2013-02-10 02:55:00,19.2,-10.9,30.24,West,270,4.6,0.0,25,0.00,CLR,,0.00,WeatherDisplay:10.37,2013-02-10 07:55:00,
2013-02-10 03:00:00,19.0,-10.3,30.24,South,180,4.6,4.6,26,0.00,CLR,,0.00,WeatherDisplay:10.37,2013-02-10 08:00:00,
2013-02-10 03:05:00,18.9,-10.4,30.24,NW,315,4.6,4.6,26,0.00,CLR,,0.00,WeatherDisplay:10.37,2013-02-10 08:05:00,
2013-02-10 03:10:00,18.9,-10.4,30.23,NW,315,4.6,4.6,26,0.00,CLR,,0.00,WeatherDisplay:10.37,2013-02-10 08:10:00,
2013-02-10 03:15:00,18.9,-10.4,30.23,West,270,3.5,3.5,26,0.00,CLR,,0.00,WeatherDisplay:10.37,2013-02-10 08:15:00,
2013-02-10 03:20:00,18.5,-10.0,30.24,NW,315,2.3,2.3,27,0.00,CLR,,0.00,WeatherDisplay:10.37,2013-02-10 08:20:00,
2013-02-10 03:25:00,18.5,-10.0,30.23,West,270,3.5,3.5,27,0.00,CLR,,0.00,WeatherDisplay:10.37,2013-02-10 08:25:00,
2013-02-10 03:30:00,18.5,-10.0,30.23,NW,315,3.5,0.0,27,0.00,CLR,,0.00,WeatherDisplay:10.37,2013-02-10 08:30:00,
2013-02-10 03:35:00,18.5,-10.0,30.24,NW,315,1.1,0.0,27,0.00,CLR,,0.00,WeatherDisplay:10.37,2013-02-10 08:35:00,
2013-02-10 03:40:00,18.3,-9.4,30.24,WSW,248,4.6,4.6,28,0.00,CLR,,0.00,WeatherDisplay:10.37,2013-02-10 08:40:00,
2013-02-10 03:45:00,18.3,-9.4,30.24,North,0,3.5,3.5,28,0.00,CLR,,0.00,WeatherDisplay:10.37,2013-02-10 08:45:00,
2013-02-10 03:50:00,18.3,-8.7,30.24,WNW,292,3.5,0.0,29,0.00,CLR,,0.00,WeatherDisplay:10.37,2013-02-10 08:50:00,
2013-02-10 03:56:00,18.3,-8.7,30.25,NW,315,3.5,3.5,29,0.00,CLR,,0.00,WeatherDisplay:10.37,2013-02-10 08:56:00,
2013-02-10 04:01:00,18.5,-8.5,30.25,West,270,4.6,4.6,29,0.00,CLR,,0.00,WeatherDisplay:10.37,2013-02-10 09:01:00,
2013-02-10 04:06:00,18.5,-8.5,30.25,SW,225,3.5,3.5,29,0.00,CLR,,0.00,WeatherDisplay:10.37,2013-02-10 09:06:00,
2013-02-10 04:11:00,18.5,-8.5,30.25,NW,315,3.5,3.5,29,0.00,CLR,,0.00,WeatherDisplay:10.37,2013-02-10 09:11:00,
2013-02-10 04:16:00,18.5,-8.5,30.25,West,270,4.6,4.6,29,0.00,CLR,,0.00,WeatherDisplay:10.37,2013-02-10 09:16:00,
2013-02-10 04:21:00,18.7,-8.4,30.25,NW,315,5.8,5.8,29,0.00,CLR,,0.00,WeatherDisplay:10.37,2013-02-10 09:21:00,
2013-02-10 04:26:00,18.7,-7.7,30.25,NE,45,4.6,4.6,30,0.00,CLR,,0.00,WeatherDisplay:10.37,2013-02-10 09:26:00,
2013-02-10 04:31:00,18.5,-7.8,30.25,NW,315,4.6,4.6,30,0.00,CLR,,0.00,WeatherDisplay:10.37,2013-02-10 09:31:00,
2013-02-10 04:36:00,18.5,-7.8,30.25,NW,315,2.3,0.0,30,0.00,CLR,,0.00,WeatherDisplay:10.37,2013-02-10 09:36:00,
2013-02-10 04:41:00,18.3,-8.0,30.25,SW,225,1.1,1.1,30,0.00,CLR,,0.00,WeatherDisplay:10.37,2013-02-10 09:41:00,
2013-02-10 04:46:00,18.3,-7.3,30.25,North,0,3.5,3.5,31,0.00,CLR,,0.00,WeatherDisplay:10.37,2013-02-10 09:46:00,
2013-02-10 04:51:00,18.3,-6.7,30.25,SW,225,5.8,5.8,32,0.00,CLR,,0.00,WeatherDisplay:10.37,2013-02-10 09:51:00,
2013-02-10 04:56:00,18.3,-6.7,30.25,SE,135,3.5,3.5,32,0.00,CLR,,0.00,WeatherDisplay:10.37,2013-02-10 09:56:00,
2013-02-10 05:01:00,18.3,-6.0,30.26,West,270,3.5,3.5,33,0.00,CLR,,0.00,WeatherDisplay:10.37,2013-02-10 10:01:00,
2013-02-10 05:06:00,18.3,-6.0,30.26,West,270,3.5,3.5,33,0.00,CLR,,0.00,WeatherDisplay:10.37,2013-02-10 10:06:00,
2013-02-10 05:11:00,18.3,-5.4,30.26,South,180,4.6,4.6,34,0.00,CLR,,0.00,WeatherDisplay:10.37,2013-02-10 10:11:00,
2013-02-10 05:16:00,18.3,-5.4,30.26,West,270,3.5,3.5,34,0.00,CLR,,0.00,WeatherDisplay:10.37,2013-02-10 10:16:00,
2013-02-10 05:21:00,18.3,-5.4,30.26,West,270,3.8,3.8,34,0.00,CLR,,0.00,WeatherDisplay:10.37,2013-02-10 10:21:00,
2013-02-10 05:26:00,18.0,-5.7,30.26,South,180,2.3,0.0,34,0.00,CLR,,0.00,WeatherDisplay:10.37,2013-02-10 10:26:00,
2013-02-10 05:31:00,17.8,-5.9,30.26,West,270,3.5,3.5,34,0.00,CLR,,0.00,WeatherDisplay:10.37,2013-02-10 10:31:00,
2013-02-10 05:36:00,17.8,-5.9,30.26,West,270,3.5,3.5,34,0.00,CLR,,0.00,WeatherDisplay:10.37,2013-02-10 10:36:00,
2013-02-10 05:41:00,17.8,-5.9,30.26,NW,315,2.3,0.0,34,0.00,CLR,,0.00,WeatherDisplay:10.37,2013-02-10 10:41:00,
2013-02-10 05:46:00,17.4,-6.2,30.26,West,270,3.5,3.5,34,0.00,CLR,,0.00,WeatherDisplay:10.37,2013-02-10 10:46:00,
2013-02-10 05:51:00,17.4,-6.2,30.26,West,270,1.1,0.0,34,0.00,CLR,,0.00,WeatherDisplay:10.37,2013-02-10 10:51:00,
2013-02-10 05:56:00,17.1,-6.5,30.26,NW,315,1.1,0.0,34,0.00,CLR,,0.00,WeatherDisplay:10.37,2013-02-10 10:56:00,
2013-02-10 06:01:00,16.7,-6.3,30.26,NW,315,3.5,3.5,35,0.00,CLR,,0.00,WeatherDisplay:10.37,2013-02-10 11:01:00,
2013-02-10 06:06:00,16.9,-5.5,30.26,NW,315,3.5,0.0,36,0.00,CLR,,0.00,WeatherDisplay:10.37,2013-02-10 11:06:00,
2013-02-10 06:11:00,16.9,-5.5,30.26,NE,45,1.1,0.0,36,0.00,CLR,,0.00,WeatherDisplay:10.37,2013-02-10 11:11:00,
2013-02-10 06:16:00,16.9,-4.9,30.26,NW,315,2.3,2.3,37,0.00,CLR,,0.00,WeatherDisplay:10.37,2013-02-10 11:16:00,
2013-02-10 06:21:00,17.1,-4.8,30.26,North,0,2.3,2.3,37,0.00,CLR,,0.00,WeatherDisplay:10.37,2013-02-10 11:21:00,
2013-02-10 06:26:00,17.1,-4.8,30.27,West,270,0.0,0.0,37,0.00,CLR,,0.00,WeatherDisplay:10.37,2013-02-10 11:26:00,
2013-02-10 06:31:00,16.9,-4.9,30.27,NE,45,2.3,0.0,37,0.00,CLR,,0.00,WeatherDisplay:10.37,2013-02-10 11:31:00,
2013-02-10 06:36:00,16.9,-4.4,30.27,North,0,1.1,1.1,38,0.00,CLR,,0.00,WeatherDisplay:10.37,2013-02-10 11:36:00,
2013-02-10 06:41:00,17.1,-4.2,30.27,North,0,0.0,0.0,38,0.00,CLR,,0.00,WeatherDisplay:10.37,2013-02-10 11:41:00,
2013-02-10 06:46:00,16.9,-4.9,30.27,West,270,1.1,0.0,37,0.00,CLR,,0.00,WeatherDisplay:10.37,2013-02-10 11:46:00,
2013-02-10 06:51:00,16.9,-4.4,30.28,West,270,0.0,0.0,38,0.00,CLR,,0.00,WeatherDisplay:10.37,2013-02-10 11:51:00,
2013-02-10 06:56:00,17.1,-4.2,30.28,West,270,1.1,1.1,38,0.00,CLR,,0.00,WeatherDisplay:10.37,2013-02-10 11:56:00,
2013-02-10 07:01:00,17.2,-4.1,30.29,West,270,0.0,0.0,38,0.00,CLR,,0.00,WeatherDisplay:10.37,2013-02-10 12:01:00,
2013-02-10 07:06:00,17.1,-4.2,30.29,West,270,1.1,1.1,38,0.00,CLR,,0.00,WeatherDisplay:10.37,2013-02-10 12:06:00,
2013-02-10 07:11:00,17.2,-4.1,30.29,NW,315,1.1,0.0,38,0.00,CLR,,0.00,WeatherDisplay:10.37,2013-02-10 12:11:00,
2013-02-10 07:16:00,17.2,-4.1,30.30,West,270,1.1,0.0,38,0.00,CLR,,0.00,WeatherDisplay:10.37,2013-02-10 12:16:00,
2013-02-10 07:21:00,17.4,-3.4,30.30,SW,225,2.3,2.3,39,0.00,CLR,,0.00,WeatherDisplay:10.37,2013-02-10 12:21:00,
2013-02-10 07:26:00,17.4,-3.4,30.31,SW,225,3.5,3.5,39,0.00,CLR,,0.00,WeatherDisplay:10.37,2013-02-10 12:26:00,
2013-02-10 07:31:00,17.6,-3.7,30.31,NW,315,2.3,0.0,38,0.00,CLR,,0.00,WeatherDisplay:10.37,2013-02-10 12:31:00,
2013-02-10 07:36:00,17.6,-3.7,30.31,SW,225,3.5,3.5,38,0.00,CLR,,0.00,WeatherDisplay:10.37,2013-02-10 12:36:00,
2013-02-10 07:41:00,17.8,-4.1,30.32,West,270,3.5,3.5,37,0.00,CLR,,0.00,WeatherDisplay:10.37,2013-02-10 12:41:00,
2013-02-10 07:46:00,18.0,-4.0,30.31,West,270,2.3,0.0,37,0.00,CLR,,0.00,WeatherDisplay:10.37,2013-02-10 12:46:00,
2013-02-10 07:51:00,18.3,-3.7,30.31,West,270,2.3,0.0,37,0.00,CLR,,0.00,WeatherDisplay:10.37,2013-02-10 12:51:00,
2013-02-10 07:56:00,18.7,-3.3,30.32,West,270,1.1,1.1,37,0.00,CLR,,0.00,WeatherDisplay:10.37,2013-02-10 12:56:00,
2013-02-10 08:01:00,19.0,-3.0,30.32,SW,225,2.3,2.3,37,0.00,CLR,,0.00,WeatherDisplay:10.37,2013-02-10 13:01:00,
2013-02-10 08:06:00,19.6,-2.5,30.32,West,270,3.5,3.5,37,0.00,CLR,,0.00,WeatherDisplay:10.37,2013-02-10 13:06:00,
2013-02-10 08:11:00,19.8,-2.9,30.33,South,180,4.6,4.6,36,0.00,CLR,,0.00,WeatherDisplay:10.37,2013-02-10 13:11:00,
2013-02-10 08:16:00,20.1,-3.2,30.33,West,270,3.5,0.0,35,0.00,CLR,,0.00,WeatherDisplay:10.37,2013-02-10 13:16:00,
2013-02-10 08:21:00,20.5,-2.9,30.33,SW,225,4.6,4.6,35,0.00,CLR,,0.00,WeatherDisplay:10.37,2013-02-10 13:21:00,
2013-02-10 08:26:00,20.8,-3.2,30.34,NW,315,3.5,3.5,34,0.00,CLR,,0.00,WeatherDisplay:10.37,2013-02-10 13:26:00,
2013-02-10 08:30:00,28.6,11.8,30.24,SSE,165,0.0,2.0,49,0.00,RA,,0.01,WeatherDisplay:10.37,2013-02-10 13:30:00,
2013-02-10 08:31:00,21.4,-2.7,30.34,SW,225,3.5,3.5,34,0.00,CLR,,0.00,WeatherDisplay:10.37,2013-02-10 13:31:00,
2013-02-10 08:36:00,21.7,-3.0,30.34,NW,315,3.5,3.5,33,0.00,CLR,,0.00,WeatherDisplay:10.37,2013-02-10 13:36:00,
2013-02-10 08:41:00,21.9,-4.1,30.34,NE,45,5.8,5.8,31,0.00,CLR,,0.00,WeatherDisplay:10.37,2013-02-10 13:41:00,
2013-02-10 08:46:00,22.1,-4.0,30.34,SE,135,1.1,0.0,31,0.00,CLR,,0.00,WeatherDisplay:10.37,2013-02-10 13:46:00,
2013-02-10 08:51:00,22.5,-4.4,30.33,SW,225,3.5,3.5,30,0.00,CLR,,0.00,WeatherDisplay:10.37,2013-02-10 13:51:00,
2013-02-10 08:56:00,23.0,-3.9,30.34,North,0,3.5,3.5,30,0.00,CLR,,0.00,WeatherDisplay:10.37,2013-02-10 13:56:00,
2013-02-10 09:01:00,23.2,-4.4,30.33,West,270,3.5,0.0,29,0.00,CLR,,0.00,WeatherDisplay:10.37,2013-02-10 14:01:00,
2013-02-10 09:06:00,23.4,-5.0,30.34,West,270,2.3,2.3,28,0.00,CLR,,0.00,WeatherDisplay:10.37,2013-02-10 14:06:00,
2013-02-10 09:11:00,23.9,-3.8,30.34,North,0,1.1,0.0,29,0.00,CLR,,0.00,WeatherDisplay:10.37,2013-02-10 14:11:00,
2013-02-10 09:17:00,24.4,-5.6,30.34,West,270,4.6,0.0,26,0.00,CLR,,0.00,WeatherDisplay:10.37,2013-02-10 14:17:00,
2013-02-10 09:22:00,24.6,-6.3,30.34,SW,225,4.6,4.6,25,0.00,CLR,,0.00,WeatherDisplay:10.37,2013-02-10 14:22:00,
2013-02-10 09:27:00,24.8,-7.0,30.34,South,180,5.8,5.8,24,0.00,CLR,,0.00,WeatherDisplay:10.37,2013-02-10 14:27:00,
2013-02-10 09:32:00,25.2,-6.6,30.34,West,270,3.5,3.5,24,0.00,CLR,,0.00,WeatherDisplay:10.37,2013-02-10 14:32:00,
2013-02-10 09:37:00,25.5,-7.2,30.35,SW,225,4.6,4.6,23,0.00,CLR,,0.00,WeatherDisplay:10.37,2013-02-10 14:37:00,
2013-02-10 09:42:00,25.7,-8.0,30.35,NW,315,5.8,5.8,22,0.00,CLR,,0.00,WeatherDisplay:10.37,2013-02-10 14:42:00,
2013-02-10 09:47:00,26.2,-8.5,30.34,North,0,4.6,4.6,21,0.00,CLR,,0.00,WeatherDisplay:10.37,2013-02-10 14:47:00,
2013-02-10 09:52:00,26.8,-9.0,30.35,SW,225,2.3,2.3,20,0.00,CLR,,0.00,WeatherDisplay:10.37,2013-02-10 14:52:00,
2013-02-10 09:57:00,26.8,-13.5,30.35,WNW,292,8.1,8.1,16,0.00,CLR,,0.00,WeatherDisplay:10.37,2013-02-10 14:57:00,
2013-02-10 10:02:00,27.1,-13.2,30.35,West,270,4.6,4.6,16,0.00,CLR,,0.00,WeatherDisplay:10.37,2013-02-10 15:02:00,
2013-02-10 10:07:00,29.5,-14.0,30.35,West,270,3.5,3.5,14,0.00,CLR,,0.00,WeatherDisplay:10.37,2013-02-10 15:07:00,
2013-02-10 10:12:00,30.9,-19.4,30.35,SW,225,5.8,5.8,10,0.00,CLR,,0.00,WeatherDisplay:10.37,2013-02-10 15:12:00,
2013-02-10 10:17:00,33.4,-17.5,30.34,NE,45,4.6,4.6,10,0.00,CLR,,0.00,WeatherDisplay:10.37,2013-02-10 15:17:00,
2013-02-10 10:22:00,34.7,-16.5,30.35,SW,225,3.5,3.5,10,0.00,CLR,,0.00,WeatherDisplay:10.37,2013-02-10 15:22:00,
2013-02-10 10:27:00,35.4,-15.9,30.35,West,270,3.5,3.5,10,0.00,CLR,,0.00,WeatherDisplay:10.37,2013-02-10 15:27:00,
2013-02-10 10:32:00,35.4,-15.9,30.35,SW,225,5.8,5.8,10,0.00,CLR,,0.00,WeatherDisplay:10.37,2013-02-10 15:32:00,
2013-02-10 10:37:00,34.9,-16.3,30.35,SW,225,3.5,3.5,10,0.00,CLR,,0.00,WeatherDisplay:10.37,2013-02-10 15:37:00,
2013-02-10 10:42:00,35.8,-15.6,30.34,NW,315,5.8,5.8,10,0.00,CLR,,0.00,WeatherDisplay:10.37,2013-02-10 15:42:00,
2013-02-10 10:47:00,36.9,-14.8,30.34,West,270,3.5,3.5,10,0.00,CLR,,0.00,WeatherDisplay:10.37,2013-02-10 15:47:00,
2013-02-10 10:52:00,37.0,-14.6,30.34,SW,225,4.6,0.0,10,0.00,CLR,,0.00,WeatherDisplay:10.37,2013-02-10 15:52:00,
2013-02-10 10:57:00,38.1,-13.8,30.34,South,180,4.6,4.6,10,0.00,CLR,,0.00,WeatherDisplay:10.37,2013-02-10 15:57:00,
2013-02-10 11:02:00,39.7,-12.5,30.34,WNW,292,3.5,0.0,10,0.00,CLR,,0.00,WeatherDisplay:10.37,2013-02-10 16:02:00,
2013-02-10 11:07:00,39.6,-12.7,30.34,West,270,5.8,5.8,10,0.00,CLR,,0.00,WeatherDisplay:10.37,2013-02-10 16:07:00,
2013-02-10 11:12:00,39.0,-13.1,30.34,North,0,3.5,3.5,10,0.00,CLR,,0.00,WeatherDisplay:10.37,2013-02-10 16:12:00,
2013-02-10 11:17:00,39.7,-12.5,30.34,North,0,3.5,3.5,10,0.01,RA,,0.01,WeatherDisplay:10.37,2013-02-10 16:17:00,
2013-02-10 11:22:00,41.4,-11.3,30.34,North,0,1.1,0.0,10,0.01,RA,,0.01,WeatherDisplay:10.37,2013-02-10 16:22:00,
2013-02-10 11:27:00,41.4,-11.3,30.34,SW,225,3.5,3.5,10,0.01,CLR,,0.01,WeatherDisplay:10.37,2013-02-10 16:27:00,
2013-02-10 11:32:00,40.5,-12.0,30.34,East,90,2.3,0.0,10,0.01,CLR,,0.01,WeatherDisplay:10.37,2013-02-10 16:32:00,
2013-02-10 11:37:00,41.5,-11.1,30.34,NW,315,3.5,3.5,10,0.01,CLR,,0.01,WeatherDisplay:10.37,2013-02-10 16:37:00,
2013-02-10 11:42:00,42.8,-10.2,30.33,SSW,202,1.1,1.1,10,0.01,CLR,,0.01,WeatherDisplay:10.37,2013-02-10 16:42:00,
2013-02-10 11:47:00,43.7,-9.5,30.33,North,0,2.3,0.0,10,0.01,CLR,,0.01,WeatherDisplay:10.37,2013-02-10 16:47:00,
2013-02-10 11:52:00,43.7,-9.5,30.33,North,0,3.5,3.5,10,0.01,CLR,,0.01,WeatherDisplay:10.37,2013-02-10 16:52:00,
2013-02-10 11:57:00,43.0,-10.0,30.32,North,0,3.5,3.5,10,0.01,CLR,,0.01,WeatherDisplay:10.37,2013-02-10 16:57:00,
2013-02-10 12:02:00,43.0,-10.0,30.32,NE,45,3.5,0.0,10,0.01,CLR,,0.01,WeatherDisplay:10.37,2013-02-10 17:02:00,
2013-02-10 12:07:00,43.0,-10.0,30.32,West,270,3.5,3.5,10,0.01,CLR,,0.01,WeatherDisplay:10.37,2013-02-10 17:07:00,
2013-02-10 12:12:00,44.1,-9.2,30.31,North,0,2.3,0.0,10,0.01,CLR,,0.01,WeatherDisplay:10.37,2013-02-10 17:12:00,
2013-02-10 12:18:00,43.3,-9.7,30.31,NNE,22,3.5,3.5,10,0.00,CLR,,0.01,WeatherDisplay:10.37,2013-02-10 17:18:00,
2013-02-10 12:23:00,43.5,-9.6,30.30,West,270,3.5,0.0,10,0.00,CLR,,0.01,WeatherDisplay:10.37,2013-02-10 17:23:00,
2013-02-10 12:28:00,44.6,-8.8,30.30,NNW,338,2.3,2.3,10,0.00,CLR,,0.01,WeatherDisplay:10.37,2013-02-10 17:28:00,
2013-02-10 12:33:00,44.1,-9.2,30.30,NE,45,3.5,3.5,10,0.00,CLR,,0.01,WeatherDisplay:10.37,2013-02-10 17:33:00,
2013-02-10 12:38:00,43.3,-9.7,30.29,North,0,3.5,3.5,10,0.00,CLR,,0.01,WeatherDisplay:10.37,2013-02-10 17:38:00,
2013-02-10 12:43:00,42.8,-10.2,30.29,NW,315,3.5,3.5,10,0.00,CLR,,0.01,WeatherDisplay:10.37,2013-02-10 17:43:00,
2013-02-10 12:48:00,42.1,-10.7,30.29,East,90,3.5,3.5,10,0.00,CLR,,0.01,WeatherDisplay:10.37,2013-02-10 17:48:00,
2013-02-10 12:53:00,42.4,-10.4,30.28,West,270,3.5,3.5,10,0.00,CLR,,0.01,WeatherDisplay:10.37,2013-02-10 17:53:00,
2013-02-10 12:58:00,42.8,-10.2,30.28,NE,45,3.5,3.5,10,0.00,CLR,,0.01,WeatherDisplay:10.37,2013-02-10 17:58:00,
2013-02-10 13:03:00,42.6,-10.3,30.28,North,0,3.5,3.5,10,0.00,CLR,,0.01,WeatherDisplay:10.37,2013-02-10 18:03:00,
2013-02-10 13:08:00,41.9,-10.9,30.28,NW,315,5.8,5.8,10,0.00,CLR,,0.01,WeatherDisplay:10.37,2013-02-10 18:08:00,
2013-02-10 13:13:00,42.3,-10.6,30.28,East,90,3.5,3.5,10,0.00,CLR,,0.01,WeatherDisplay:10.37,2013-02-10 18:13:00,
2013-02-10 13:18:00,41.2,-11.4,30.28,NE,45,4.6,0.0,10,0.00,CLR,,0.01,WeatherDisplay:10.37,2013-02-10 18:18:00,
2013-02-10 13:23:00,41.9,-10.9,30.28,East,90,3.5,3.5,10,0.00,CLR,,0.01,WeatherDisplay:10.37,2013-02-10 18:23:00,
2013-02-10 13:28:00,42.6,-10.3,30.28,South,180,3.5,3.5,10,0.00,CLR,,0.01,WeatherDisplay:10.37,2013-02-10 18:28:00,
2013-02-10 13:33:00,42.8,-10.2,30.28,NE,45,3.5,3.5,10,0.00,CLR,,0.01,WeatherDisplay:10.37,2013-02-10 18:33:00,
2013-02-10 13:38:00,43.0,-10.0,30.28,West,270,3.5,3.5,10,0.00,CLR,,0.01,WeatherDisplay:10.37,2013-02-10 18:38:00,
2013-02-10 13:43:00,43.2,-9.9,30.28,SW,225,3.5,0.0,10,0.00,CLR,,0.01,WeatherDisplay:10.37,2013-02-10 18:43:00,
2013-02-10 13:48:00,43.3,-9.7,30.28,South,180,2.3,2.3,10,0.00,CLR,,0.01,WeatherDisplay:10.37,2013-02-10 18:48:00,
2013-02-10 13:53:00,43.9,-9.3,30.28,NE,45,0.0,0.0,10,0.00,CLR,,0.01,WeatherDisplay:10.37,2013-02-10 18:53:00,
2013-02-10 13:58:00,44.4,-8.9,30.27,East,90,3.1,3.1,10,0.00,CLR,,0.01,WeatherDisplay:10.37,2013-02-10 18:58:00,
2013-02-10 14:03:00,43.3,-9.7,30.27,North,0,3.5,3.5,10,0.00,CLR,,0.01,WeatherDisplay:10.37,2013-02-10 19:03:00,
2013-02-10 14:08:00,43.9,-9.3,30.27,East,90,3.5,3.5,10,0.00,CLR,,0.01,WeatherDisplay:10.37,2013-02-10 19:08:00,
2013-02-10 14:13:00,43.9,-9.3,30.27,North,0,3.5,3.5,10,0.00,CLR,,0.01,WeatherDisplay:10.37,2013-02-10 19:13:00,
2013-02-10 14:18:00,43.7,-9.5,30.27,SW,225,3.5,3.5,10,0.00,CLR,,0.01,WeatherDisplay:10.37,2013-02-10 19:18:00,
2013-02-10 14:23:00,43.3,-9.7,30.27,NE,45,3.5,3.5,10,0.00,CLR,,0.01,WeatherDisplay:10.37,2013-02-10 19:23:00,
2013-02-10 14:28:00,43.5,-9.6,30.27,East,90,3.5,3.5,10,0.00,CLR,,0.01,WeatherDisplay:10.37,2013-02-10 19:28:00,
2013-02-10 14:33:00,43.0,-10.0,30.27,NE,45,3.5,3.5,10,0.00,CLR,,0.01,WeatherDisplay:10.37,2013-02-10 19:33:00,
2013-02-10 14:38:00,43.5,-9.6,30.28,SE,135,3.5,3.5,10,0.00,CLR,,0.01,WeatherDisplay:10.37,2013-02-10 19:38:00,
2013-02-10 14:43:00,43.9,-9.3,30.28,West,270,2.3,2.3,10,0.00,CLR,,0.01,WeatherDisplay:10.37,2013-02-10 19:43:00,
2013-02-10 14:48:00,44.6,-8.8,30.26,NE,45,3.5,0.0,10,0.00,CLR,,0.01,WeatherDisplay:10.37,2013-02-10 19:48:00,
2013-02-10 14:53:00,43.9,-9.3,30.26,NNE,22,3.5,3.5,10,0.00,CLR,,0.01,WeatherDisplay:10.37,2013-02-10 19:53:00,
2013-02-10 14:58:00,43.2,-9.9,30.26,NE,45,5.8,5.8,10,0.00,CLR,,0.01,WeatherDisplay:10.37,2013-02-10 19:58:00,
2013-02-10 15:03:00,42.4,-10.4,30.26,SE,135,5.8,5.8,10,0.00,CLR,,0.01,WeatherDisplay:10.37,2013-02-10 20:03:00,
2013-02-10 15:08:00,41.9,-10.9,30.26,West,270,5.8,5.8,10,0.00,CLR,,0.01,WeatherDisplay:10.37,2013-02-10 20:08:00,
2013-02-10 15:13:00,42.6,-10.3,30.26,SW,225,3.5,3.5,10,0.00,CLR,,0.01,WeatherDisplay:10.37,2013-02-10 20:13:00,
2013-02-10 15:18:00,42.3,-10.6,30.26,North,0,3.5,3.5,10,0.00,CLR,,0.01,WeatherDisplay:10.37,2013-02-10 20:18:00,
2013-02-10 15:23:00,41.9,-10.9,30.26,NE,45,4.6,4.6,10,0.00,CLR,,0.01,WeatherDisplay:10.37,2013-02-10 20:23:00,
2013-02-10 15:28:00,41.0,-11.6,30.26,SE,135,3.5,3.5,10,0.00,CLR,,0.01,WeatherDisplay:10.37,2013-02-10 20:28:00,
2013-02-10 15:33:00,40.5,-12.0,30.26,North,0,3.5,3.5,10,0.00,CLR,,0.01,WeatherDisplay:10.37,2013-02-10 20:33:00,
2013-02-10 15:38:00,40.8,-11.7,30.25,SE,135,6.9,6.9,10,0.00,CLR,,0.01,WeatherDisplay:10.37,2013-02-10 20:38:00,
2013-02-10 15:43:00,40.3,-12.1,30.26,SW,225,6.9,6.9,10,0.00,CLR,,0.01,WeatherDisplay:10.37,2013-02-10 20:43:00,
2013-02-10 15:48:00,40.1,-12.3,30.27,North,0,3.5,3.5,10,0.00,CLR,,0.01,WeatherDisplay:10.37,2013-02-10 20:48:00,
2013-02-10 15:53:00,40.5,-12.0,30.26,SW,225,3.5,0.0,10,0.00,CLR,,0.01,WeatherDisplay:10.37,2013-02-10 20:53:00,
2013-02-10 15:58:00,41.2,-11.4,30.26,West,270,2.3,2.3,10,0.00,CLR,,0.01,WeatherDisplay:10.37,2013-02-10 20:58:00,
2013-02-10 16:03:00,41.0,-11.6,30.26,NE,45,3.5,0.0,10,0.00,CLR,,0.01,WeatherDisplay:10.37,2013-02-10 21:03:00,
2013-02-10 16:08:00,40.1,-12.3,30.25,North,0,5.8,5.8,10,0.00,CLR,,0.01,WeatherDisplay:10.37,2013-02-10 21:08:00,
2013-02-10 16:13:00,39.7,-12.5,30.25,North,0,5.4,5.4,10,0.00,CLR,,0.01,WeatherDisplay:10.37,2013-02-10 21:13:00,
2013-02-10 16:18:00,38.7,-13.4,30.25,SW,225,4.6,4.6,10,0.00,CLR,,0.01,WeatherDisplay:10.37,2013-02-10 21:18:00,
2013-02-10 16:23:00,38.8,-13.2,30.25,North,0,8.1,8.1,10,0.00,CLR,,0.01,WeatherDisplay:10.37,2013-02-10 21:23:00,
2013-02-10 16:28:00,37.9,-13.9,30.25,West,270,2.3,0.0,10,0.00,CLR,,0.01,WeatherDisplay:10.37,2013-02-10 21:28:00,
2013-02-10 16:33:00,37.4,-10.7,30.25,SW,225,3.5,0.0,12,0.00,CLR,,0.01,WeatherDisplay:10.37,2013-02-10 21:33:00,
2013-02-10 16:38:00,37.2,-9.2,30.25,NE,45,4.6,4.6,13,0.00,CLR,,0.01,WeatherDisplay:10.37,2013-02-10 21:38:00,
2013-02-10 16:43:00,36.3,-8.4,30.25,NW,315,3.5,3.5,14,0.00,CLR,,0.01,WeatherDisplay:10.37,2013-02-10 21:43:00,
2013-02-10 16:48:00,35.6,-5.0,30.25,East,90,4.6,4.6,17,0.00,CLR,,0.01,WeatherDisplay:10.37,2013-02-10 21:48:00,
2013-02-10 16:54:00,34.9,-4.4,30.25,SSW,202,3.5,0.0,18,0.00,CLR,,0.01,WeatherDisplay:10.37,2013-02-10 21:54:00,
2013-02-10 16:59:00,34.3,-0.6,30.25,SSE,158,5.8,5.8,22,0.00,CLR,,0.01,WeatherDisplay:10.37,2013-02-10 21:59:00,
2013-02-10 17:04:00,33.8,-0.2,30.25,South,180,3.5,3.5,23,0.00,CLR,,0.01,WeatherDisplay:10.37,2013-02-10 22:04:00,
2013-02-10 17:09:00,33.1,0.1,30.26,South,180,8.1,8.1,24,0.00,CLR,,0.01,WeatherDisplay:10.37,2013-02-10 22:09:00,
2013-02-10 17:14:00,32.7,-0.2,30.25,South,180,2.3,0.0,24,0.00,CLR,,0.01,WeatherDisplay:10.37,2013-02-10 22:14:00,
2013-02-10 17:19:00,32.2,1.1,30.25,SW,225,1.1,0.0,26,0.00,CLR,,0.01,WeatherDisplay:10.37,2013-02-10 22:19:00,
2013-02-10 17:24:00,31.6,0.6,30.25,SE,135,1.1,0.0,26,0.00,CLR,,0.01,WeatherDisplay:10.37,2013-02-10 22:24:00,
2013-02-10 17:29:00,31.1,1.7,30.24,SW,225,3.5,0.0,28,0.00,CLR,,0.01,WeatherDisplay:10.37,2013-02-10 22:29:00,
2013-02-10 17:34:00,30.7,2.2,30.25,South,180,0.0,0.7,29,0.00,CLR,,0.01,WeatherDisplay:10.37,2013-02-10 22:34:00,
2013-02-10 17:39:00,30.7,5.0,30.26,SW,225,3.5,3.5,33,0.00,CLR,,0.01,WeatherDisplay:10.37,2013-02-10 22:39:00,
2013-02-10 17:44:00,30.6,5.5,30.26,South,180,3.5,3.5,34,0.00,CLR,,0.01,WeatherDisplay:10.37,2013-02-10 22:44:00,
2013-02-10 17:49:00,30.4,5.3,30.25,East,90,3.5,0.0,34,0.00,CLR,,0.01,WeatherDisplay:10.37,2013-02-10 22:49:00,
2013-02-10 17:54:00,30.2,5.2,30.26,South,180,0.0,0.0,34,0.00,CLR,,0.01,WeatherDisplay:10.37,2013-02-10 22:54:00,
2013-02-10 17:59:00,29.8,5.5,30.26,SE,135,2.3,2.3,35,0.00,CLR,,0.01,WeatherDisplay:10.37,2013-02-10 22:59:00,
2013-02-10 18:04:00,29.7,5.3,30.26,SW,225,0.0,0.0,35,0.00,CLR,,0.01,WeatherDisplay:10.37,2013-02-10 23:04:00,
2013-02-10 18:09:00,29.7,7.1,30.26,East,90,4.6,4.6,38,0.00,CLR,,0.01,WeatherDisplay:10.37,2013-02-10 23:09:00,
2013-02-10 18:14:00,29.7,7.7,30.26,South,180,3.5,3.5,39,0.00,CLR,,0.01,WeatherDisplay:10.37,2013-02-10 23:14:00,
2013-02-10 18:19:00,29.5,8.1,30.26,WSW,248,3.5,0.0,40,0.00,CLR,,0.01,WeatherDisplay:10.37,2013-02-10 23:19:00,
2013-02-10 18:24:00,29.5,8.1,30.26,SW,225,3.5,3.5,40,0.00,CLR,,0.01,WeatherDisplay:10.37,2013-02-10 23:24:00,
2013-02-10 18:29:00,29.5,8.6,30.26,South,180,1.1,0.0,41,0.00,CLR,,0.01,WeatherDisplay:10.37,2013-02-10 23:29:00,
2013-02-10 18:34:00,29.1,7.8,30.26,SE,135,0.0,0.0,40,0.00,CLR,,0.01,WeatherDisplay:10.37,2013-02-10 23:34:00,
2013-02-10 18:39:00,28.9,8.1,30.26,SW,225,3.5,0.0,41,0.00,CLR,,0.01,WeatherDisplay:10.37,2013-02-10 23:39:00,
2013-02-10 18:44:00,28.9,8.7,30.26,SW,225,3.5,3.5,42,0.00,CLR,,0.01,WeatherDisplay:10.37,2013-02-10 23:44:00,
2013-02-10 18:49:00,29.3,10.6,30.27,West,270,3.5,3.5,45,0.00,CLR,,0.01,WeatherDisplay:10.37,2013-02-10 23:49:00,
2013-02-10 18:54:00,29.5,11.2,30.27,SW,225,3.5,0.0,46,0.00,CLR,,0.01,WeatherDisplay:10.37,2013-02-10 23:54:00,
2013-02-10 18:59:00,29.7,11.9,30.27,SW,225,3.5,3.5,47,0.00,CLR,,0.01,WeatherDisplay:10.37,2013-02-10 23:59:00,
2013-02-10 19:04:00,29.8,12.0,30.26,SW,225,3.5,0.0,47,0.00,CLR,,0.01,WeatherDisplay:10.37,2013-02-11 00:04:00,
2013-02-10 19:09:00,29.8,12.0,30.25,West,270,3.5,0.0,47,0.00,CLR,,0.01,WeatherDisplay:10.37,2013-02-11 00:09:00,
2013-02-10 19:14:00,29.8,12.0,30.25,SW,225,3.5,0.0,47,0.00,CLR,,0.01,WeatherDisplay:10.37,2013-02-11 00:14:00,
2013-02-10 19:19:00,29.8,12.0,30.25,SW,225,3.5,3.5,47,0.00,CLR,,0.01,WeatherDisplay:10.37,2013-02-11 00:19:00,
2013-02-10 19:24:00,29.8,12.5,30.25,SSE,158,3.5,3.5,48,0.00,CLR,,0.01,WeatherDisplay:10.37,2013-02-11 00:24:00,
2013-02-10 19:29:00,29.8,12.5,30.25,South,180,3.5,3.5,48,0.00,CLR,,0.01,WeatherDisplay:10.37,2013-02-11 00:29:00,
2013-02-10 19:34:00,29.7,12.3,30.25,West,270,5.8,0.0,48,0.00,CLR,,0.01,WeatherDisplay:10.37,2013-02-11 00:34:00,
2013-02-10 19:39:00,29.7,12.3,30.25,SW,225,2.3,2.3,48,0.00,CLR,,0.01,WeatherDisplay:10.37,2013-02-11 00:39:00,
2013-02-10 19:44:00,29.7,12.3,30.25,South,180,3.5,3.5,48,0.00,CLR,,0.01,WeatherDisplay:10.37,2013-02-11 00:44:00,
2013-02-10 19:49:00,29.5,12.2,30.25,SW,225,3.5,0.0,48,0.00,CLR,,0.01,WeatherDisplay:10.37,2013-02-11 00:49:00,
2013-02-10 19:54:00,29.3,12.0,30.25,SW,225,1.1,2.2,48,0.00,CLR,,0.01,WeatherDisplay:10.37,2013-02-11 00:54:00,
2013-02-10 19:59:00,29.3,12.5,30.25,South,180,3.5,0.0,49,0.00,CLR,,0.01,WeatherDisplay:10.37,2013-02-11 00:59:00,
2013-02-10 20:04:00,29.3,12.5,30.25,South,180,2.3,0.0,49,0.00,CLR,,0.01,WeatherDisplay:10.37,2013-02-11 01:04:00,
2013-02-10 20:09:00,29.3,12.5,30.25,South,180,1.1,0.0,49,0.00,CLR,,0.01,WeatherDisplay:10.37,2013-02-11 01:09:00,
2013-02-10 20:14:00,29.1,11.8,30.25,SW,225,0.0,0.0,48,0.00,CLR,,0.01,WeatherDisplay:10.37,2013-02-11 01:14:00,
2013-02-10 20:19:00,28.9,12.1,30.24,East,90,0.0,0.0,49,0.00,CLR,,0.01,WeatherDisplay:10.37,2013-02-11 01:19:00,
2013-02-10 20:24:00,28.8,12.0,30.24,South,180,1.1,0.0,49,0.00,CLR,,0.01,WeatherDisplay:10.37,2013-02-11 01:24:00,
2013-02-10 20:29:00,28.6,11.8,30.24,SE,135,2.3,0.0,49,0.00,CLR,,0.01,WeatherDisplay:10.37,2013-02-11 01:29:00,
2013-02-10 20:37:00,28.6,11.8,30.25,East,90,1.1,0.0,49,0.00,RA,,0.01,WeatherDisplay:10.37,2013-02-11 01:37:00,
2013-02-10 20:42:00,28.6,11.8,30.25,SE,135,1.1,0.0,49,0.00,RA,,0.01,WeatherDisplay:10.37,2013-02-11 01:42:00,
2013-02-10 20:47:00,28.6,12.3,30.25,South,180,1.1,0.0,50,0.00,CLR,,0.01,WeatherDisplay:10.37,2013-02-11 01:47:00,
2013-02-10 20:52:00,28.6,12.3,30.25,South,180,2.3,0.0,50,0.00,CLR,,0.01,WeatherDisplay:10.37,2013-02-11 01:52:00,
2013-02-10 20:57:00,28.9,13.1,30.25,SSW,202,1.1,1.1,51,0.00,CLR,,0.01,WeatherDisplay:10.37,2013-02-11 01:57:00,
2013-02-10 21:02:00,29.1,13.7,30.25,SW,225,1.1,0.0,52,0.00,CLR,,0.01,WeatherDisplay:10.37,2013-02-11 02:02:00,
2013-02-10 21:07:00,29.5,14.0,30.25,SW,225,3.5,0.0,52,0.00,CLR,,0.01,WeatherDisplay:10.37,2013-02-11 02:07:00,
2013-02-10 21:12:00,29.7,14.2,30.25,SW,225,4.6,4.6,52,0.00,CLR,,0.01,WeatherDisplay:10.37,2013-02-11 02:12:00,
2013-02-10 21:17:00,29.8,13.9,30.24,SW,225,2.3,0.0,51,0.00,CLR,,0.01,WeatherDisplay:10.37,2013-02-11 02:17:00,
2013-02-10 21:22:00,30.0,14.1,30.24,South,180,3.5,3.5,51,0.00,CLR,,0.01,WeatherDisplay:10.37,2013-02-11 02:22:00,
2013-02-10 21:27:00,30.4,14.4,30.24,SW,225,1.1,0.0,51,0.00,CLR,,0.01,WeatherDisplay:10.37,2013-02-11 02:27:00,
2013-02-10 21:32:00,30.6,14.1,30.24,NW,315,2.3,2.3,50,0.00,CLR,,0.01,WeatherDisplay:10.37,2013-02-11 02:32:00,
2013-02-10 21:37:00,30.6,14.1,30.23,South,180,3.5,3.5,50,0.00,CLR,,0.01,WeatherDisplay:10.37,2013-02-11 02:37:00,
2013-02-10 21:42:00,30.7,14.3,30.23,SW,225,3.5,0.0,50,0.00,CLR,,0.01,WeatherDisplay:10.37,2013-02-11 02:42:00,
2013-02-10 21:47:00,30.9,14.0,30.23,SE,135,2.3,0.0,49,0.00,CLR,,0.01,WeatherDisplay:10.37,2013-02-11 02:47:00,
2013-02-10 21:52:00,30.9,14.0,30.22,SW,225,1.1,0.0,49,0.00,CLR,,0.01,WeatherDisplay:10.37,2013-02-11 02:52:00,
2013-02-10 21:57:00,31.1,14.1,30.22,SE,135,2.3,2.3,49,0.00,CLR,,0.01,WeatherDisplay:10.37,2013-02-11 02:57:00,
2013-02-10 22:02:00,31.1,14.1,30.22,SE,135,1.1,0.0,49,0.00,CLR,,0.01,WeatherDisplay:10.37,2013-02-11 03:02:00,
2013-02-10 22:07:00,31.3,13.8,30.22,SE,135,2.3,0.0,48,0.00,CLR,,0.01,WeatherDisplay:10.37,2013-02-11 03:07:00,
2013-02-10 22:12:00,31.3,13.8,30.22,South,180,2.3,0.0,48,0.00,CLR,,0.01,WeatherDisplay:10.37,2013-02-11 03:12:00,
2013-02-10 22:17:00,31.5,14.0,30.22,South,180,3.5,3.5,48,0.00,CLR,,0.01,WeatherDisplay:10.37,2013-02-11 03:17:00,
2013-02-10 22:22:00,31.5,14.0,30.22,NE,45,1.1,0.0,48,0.00,CLR,,0.01,WeatherDisplay:10.37,2013-02-11 03:22:00,
2013-02-10 22:27:00,31.5,14.0,30.22,SW,225,0.0,0.0,48,0.00,CLR,,0.01,WeatherDisplay:10.37,2013-02-11 03:27:00,
2013-02-10 22:32:00,31.6,14.6,30.22,SW,225,3.5,3.5,49,0.00,CLR,,0.01,WeatherDisplay:10.37,2013-02-11 03:32:00,
2013-02-10 22:37:00,31.8,14.8,30.22,SW,225,1.1,0.0,49,0.00,CLR,,0.01,WeatherDisplay:10.37,2013-02-11 03:37:00,
2013-02-10 22:42:00,32.0,15.0,30.21,South,180,3.5,0.0,49,0.00,CLR,,0.01,WeatherDisplay:10.37,2013-02-11 03:42:00,
2013-02-10 22:47:00,32.0,15.0,30.21,South,180,1.1,0.0,49,0.00,CLR,,0.01,WeatherDisplay:10.37,2013-02-11 03:47:00,
2013-02-10 22:52:00,32.0,15.0,30.20,NNW,338,1.1,0.0,49,0.00,CLR,,0.01,WeatherDisplay:10.37,2013-02-11 03:52:00,
2013-02-10 22:57:00,32.0,15.0,30.20,SE,135,0.0,0.0,49,0.00,CLR,,0.01,WeatherDisplay:10.37,2013-02-11 03:57:00,
2013-02-10 23:02:00,32.0,15.0,30.20,South,180,1.1,0.0,49,0.00,CLR,,0.01,WeatherDisplay:10.37,2013-02-11 04:02:00,
2013-02-10 23:07:00,32.0,15.0,30.19,South,180,0.0,0.0,49,0.00,CLR,,0.01,WeatherDisplay:10.37,2013-02-11 04:07:00,
2013-02-10 23:12:00,32.0,15.0,30.19,South,180,0.0,0.0,49,0.00,CLR,,0.01,WeatherDisplay:10.37,2013-02-11 04:12:00,
2013-02-10 23:17:00,32.0,15.0,30.19,South,180,0.0,0.0,49,0.00,CLR,,0.01,WeatherDisplay:10.37,2013-02-11 04:17:00,
2013-02-10 23:22:00,32.2,15.6,30.19,South,180,0.0,0.0,50,0.00,CLR,,0.01,WeatherDisplay:10.37,2013-02-11 04:22:00,
2013-02-10 23:27:00,32.2,15.6,30.19,SE,135,2.3,0.0,50,0.00,CLR,,0.01,WeatherDisplay:10.37,2013-02-11 04:27:00,
2013-02-10 23:32:00,32.4,15.8,30.19,SW,225,2.3,0.0,50,0.00,CLR,,0.01,WeatherDisplay:10.37,2013-02-11 04:32:00,
2013-02-10 23:37:00,32.5,16.4,30.19,SW,225,3.5,0.0,51,0.00,CLR,,0.01,WeatherDisplay:10.37,2013-02-11 04:37:00,
2013-02-10 23:42:00,32.7,16.6,30.19,South,180,1.1,0.0,51,0.00,CLR,,0.01,WeatherDisplay:10.37,2013-02-11 04:42:00,
2013-02-10 23:47:00,32.9,16.7,30.21,SW,225,0.0,0.0,51,0.00,CLR,,0.01,WeatherDisplay:10.37,2013-02-11 04:47:00,
2013-02-10 23:52:00,33.1,16.9,30.21,West,270,1.1,0.0,51,0.00,CLR,,0.01,WeatherDisplay:10.37,2013-02-11 04:52:00,
2013-02-10 23:57:00,33.1,16.9,30.20,South,180,1.1,0.0,51,0.00,CLR,,0.01,WeatherDisplay:10.37,2013-02-11 04:57:00,